Muskegon, MI

12:25 PM EDT on October 14, 2019 (GMT -0400)
Muskegon County

Weather History for KMKG - August, 2019

Change the Weather History Date:

Saturday, August 24, 2019

  Actual Average Record
Temperature  
Mean Temperature 65 °F 69 °F  
Max Temperature 79 °F 78 °F 96 °F (1947)
Min Temperature 51 °F 60 °F 40 °F (1942)
Degree Days  
Heating Degree Days 0 1  
Month to date heating degree days 0 7  
Since 1 June heating degree days 58 84  
Since 1 July heating degree days 1 18  
Cooling Degree Days 0 5  
Month to date cooling degree days 155 137  
Year to date cooling degree days 526 473  
Since 1 June cooling degree days 523 444  
Growing Degree Days 15 (Base 50)    
Moisture  
Dew Point 50 °F    
Average Humidity 61    
Maximum Humidity 83    
Minimum Humidity 35    
Precipitation  
Precipitation 0.00 in 0.10 in 2.38 in (1985)
Month to date precipitation 1.33 2.59  
Year to date precipitation 26.30 19.78  
Snow  
Snow 0.00 in 0.00 in - ()
Month to date snowfall 0.0 0.0  
Since 1 June snowfall 0.0 0.0  
Since 1 July snowfall 0.0 0.0  
Snow Depth 0.00 in    
Sea Level Pressure  
Sea Level Pressure 30.28 in    
Wind  
Wind Speed 5 mph ()    
Max Wind Speed 16 mph    
Max Gust Speed 21 mph    
Visibility 10.0 miles    
Events      
T = Trace of Precipitation, MM = Missing Value Source: Averaged Metar Reports

Daily Weather History Graph

Daily Weather History Graph

Search for Another Location

Airport or City:

Astronomy

Aug. 24, 2019 Rise Set
Actual Time 7:00 AM EDT 8:33 PM EDT
Civil Twilight 6:30 AM EDT 9:03 PM EDT
Nautical Twilight 5:53 AM EDT 9:39 PM EDT
Astronomical Twilight 5:15 AM EDT 10:18 PM EDT
Moon 12:49 AM EDT (8/24) 3:53 PM EDT (8/24)
Length of Visible Light 14h 33m
Length of Day
13h 33m
Last Quarter, 39% of the Moon is Illuminated
Aug 24
Last Quarter
Aug 30
New
Sep 5
First Quarter
Sep 14
Full
Sep 21
Last Quarter

Hourly Weather History & Observations

Time (EDT) Temp. Dew Point Humidity Pressure Visibility Wind Dir Wind Speed Gust Speed Precip Events Conditions
12:55 AM 61.0 °F 53.1 °F 75% 30.27 in 10.0 mi NNE 3.5 mph - N/A   Clear
1:55 AM 59.0 °F 52.0 °F 78% 30.27 in 10.0 mi NE 3.5 mph - N/A   Clear
2:55 AM 57.0 °F 51.1 °F 81% 30.27 in 10.0 mi ENE 5.8 mph - N/A   Clear
3:55 AM 55.0 °F 48.9 °F 80% 30.29 in 10.0 mi ENE 4.6 mph - N/A   Clear
4:55 AM 54.0 °F 48.0 °F 80% 30.30 in 10.0 mi East 4.6 mph - N/A   Clear
5:55 AM 52.0 °F 46.9 °F 83% 30.31 in 10.0 mi ESE 3.5 mph - N/A   Clear
6:55 AM 52.0 °F 46.9 °F 83% 30.32 in 10.0 mi ENE 4.6 mph - N/A   Clear
7:55 AM 55.0 °F 48.0 °F 77% 30.34 in 10.0 mi East 4.6 mph - N/A   Partly Cloudy
8:55 AM 61.0 °F 48.9 °F 64% 30.35 in 10.0 mi East 5.8 mph - N/A   Partly Cloudy
9:55 AM 66.0 °F 50.0 °F 56% 30.33 in 10.0 mi East 9.2 mph - N/A   Clear
10:55 AM 70.0 °F 50.0 °F 49% 30.33 in 10.0 mi East 11.5 mph - N/A   Clear
11:55 AM 73.0 °F 48.0 °F 41% 30.32 in 10.0 mi East 8.1 mph - N/A   Partly Cloudy
12:55 PM 73.9 °F 48.0 °F 40% 30.30 in 10.0 mi NE 9.2 mph 20.7 mph N/A   Scattered Clouds
1:55 PM 75.0 °F 48.0 °F 38% 30.29 in 10.0 mi East 11.5 mph - N/A   Partly Cloudy
2:55 PM 77.0 °F 48.9 °F 37% 30.28 in 10.0 mi ESE 13.8 mph 19.6 mph N/A   Partly Cloudy
3:55 PM 78.1 °F 48.9 °F 36% 30.26 in 10.0 mi NE 12.7 mph 16.1 mph N/A   Partly Cloudy
4:55 PM 78.1 °F 48.9 °F 36% 30.25 in 10.0 mi Variable 3.5 mph - N/A   Partly Cloudy
5:55 PM 78.1 °F 50.0 °F 37% 30.24 in 10.0 mi East 8.1 mph - N/A   Partly Cloudy
6:55 PM 73.9 °F 54.0 °F 50% 30.24 in 10.0 mi WNW 5.8 mph - N/A   Partly Cloudy
7:55 PM 71.1 °F 55.0 °F 57% 30.23 in 10.0 mi West 6.9 mph - N/A   Scattered Clouds
8:55 PM 66.9 °F 55.9 °F 68% 30.24 in 10.0 mi Calm Calm - N/A   Scattered Clouds
9:55 PM 64.0 °F 54.0 °F 70% 30.25 in 10.0 mi Calm Calm - N/A   Scattered Clouds
10:55 PM 62.1 °F 52.0 °F 70% 30.24 in 10.0 mi East 4.6 mph - N/A   Scattered Clouds
11:55 PM 63.0 °F 52.0 °F 67% 30.24 in 10.0 mi East 8.1 mph - N/A   Clear